Location: Pedholt
(56.0260°N, 10.2097°E)
Time: 02:07:50
(UTC+00:00)

SR - Pass Details

Date: 01 August 2021
Orbit: 581 x 873 km, 66.7° (Epoch: 27 September)

Event Time Altitude Azimuth Distance (km) Brightness Sun altitude
Rises 10:38:16 0° 301° (WNW) 3,295 ? 50.8°
Reaches altitude 10° 10:41:08 10° 313° (NW) 2,314 ? 51.0°
Maximum altitude 10:45:36 27° 11° (NNE) 1,383 ? 51.1°
Drops below altitude 10° 10:49:46 10° 70° (ENE) 2,143 ? 51.3°
Sets 10:52:19 0° 83° (E) 3,007 ? 51.4°
